Effective Sunday, March 17, 2024, the National Weather Service National Data Buoy Center will discontinue its Dial-A-Buoy Interactive Voice Response system. For more information, see Service Change Notice 24-06 (PDF).

Station 41037 - Wrightsville Beach Offshore, NC (ILM3) Image indicating link to RSS feed of recent meteorological observations for station 41037


Conditions at 41037 as of
(11:08 pm EST on 02/29/2024)
0408 GMT on 03/01/2024:
     

Click on the graph icon in the table below to see a time series plot of the last five days of that observation.

5-day plot - Wind Direction Wind Direction (WDIR): NE ( 50 deg true )
5-day plot - Wind Speed Wind Speed (WSPD): 11.7 kts
5-day plot - Wind Gust Wind Gust (GST): 15.5 kts
5-day plot - Atmospheric Pressure Atmospheric Pressure (PRES):30.46 in
5-day plot - Air Temperature Air Temperature (ATMP): 52.7 °F
5-day plot - Water Temperature Water Temperature (WTMP): 55.8 °F
5-day plot - Dew Point Dew Point (DEWP): 38.7 °F
5-day plot - Wind Chill Wind Chill (CHILL): 48.4 °F
5-day plot - Wind Speed at 10 Meters Wind Speed at 10 meters (WSPD10M): 15.5 kts
5-day plot - Wind Speed at 20 Meters Wind Speed at 20 meters (WSPD20M): 15.5 kts
5-day plot -  Wind Speed, Wind Gust and Atmospheric Pressure Combined plot of Wind Speed, Gust, and Air Pressure
Previous observations
TIME
(EST)
5-day plot - Wind Direction
WDIR
 
5-day plot - Wind Speed
WSPD
kts
5-day plot - Wind Gust
GST
kts
5-day plot - Wave Height
WVHT
ft
5-day plot - Dominant Wave Period
DPD
sec
5-day plot - Average Wave Period
APD
sec
5-day plot - Mean Wave Direction
MWD
 
5-day plot - Atmospheric Pressure
PRES
in
5-day plot - Pressure Tendency
PTDY
in
5-day plot - Air Temperature
ATMP
°F
5-day plot - Water Temperature
WTMP
°F
5-day plot - Dew Point
DEWP
°F
5-day plot - Salinity
SAL
psu
5-day plot - Visibility
VIS
nmi
5-day plot - Tide (above MLLW)
TIDE
ft
2024-02-29 10:08 pmNNE 11.7 15.5----30.47- 52.5 55.8 37.6---
2024-02-29 09:08 pm NE 9.7 13.6----30.47- 52.2 55.8 36.9---
2024-02-29 08:08 pmENE 7.8 11.7----30.47- 51.6 55.8 35.8---
2024-02-29 07:08 pmENE 7.8 11.7----30.46- 51.1 55.6 36.1---
2024-02-29 05:08 pm NE 7.8 13.6----30.43- 50.2 55.0 34.9---
2024-02-29 04:08 pm NE 11.7 17.5----30.42- 50.0 55.0 34.3---
2024-02-29 03:08 pmENE 11.7 19.4----30.41- 49.6 55.0 35.4---
2024-02-29 02:08 pmENE 13.6 21.4----30.42- 48.9 55.0 35.6---
2024-02-29 01:08 pmNNE 13.6 19.4----30.42- 48.6 54.9 36.1---
2024-02-29 12:08 pmNNE 15.5 21.4----30.44- 47.8 54.9 35.1---
2024-02-29 11:08 am NE 17.5 25.3----30.45- 47.5 54.9 35.8---
2024-02-29 10:08 am NE 19.4 27.2----30.43- 47.3 54.7 36.3---
2024-02-29 09:08 am NE 21.4 29.1----30.42- 47.3 54.7 35.1---
2024-02-29 08:08 am N 23.3 31.1----30.38- 48.4 54.7 35.1---
2024-02-29 07:08 am N 21.4 31.1----30.33- 48.7 54.5 34.7---
2024-02-29 06:08 am N 23.3 33.0----30.29- 50.4 54.3 33.8---
2024-02-29 05:08 am N 25.3 33.0----30.25- 51.8 54.3 35.2---
2024-02-29 04:08 amNNW 23.3 31.1----30.22- 53.4 54.3 39.9---
2024-02-29 03:08 amNNW 23.3 29.1----30.18- 54.9 54.3 40.5---
2024-02-29 02:08 am NW 21.4 29.1----30.15- 56.5 54.5----
2024-02-29 01:08 am NW 17.5 21.4----30.11- 58.1 54.5 54.5---
2024-02-29 12:08 am SW 13.6 21.4----30.07- 58.5 54.5 54.7---